CXT,Max TemperatureF,Mean TemperatureF,Min TemperatureF,Max Dew PointF,MeanDew PointF,Min DewpointF,Max Humidity, Mean Humidity, Min Humidity, Max Sea Level PressureIn, Mean Sea Level PressureIn, Min Sea Level PressureIn, Max VisibilityMiles, Mean VisibilityMiles, Min VisibilityMiles, Max Wind SpeedMPH, Mean Wind SpeedMPH, Max Gust SpeedMPH,PrecipitationIn, CloudCover, Events, WindDirDegrees
2013-1-1,84,79,74,75,74,73,94,85,67,29.86,29.81,29.74,6,6,6,10,5,,0.00,6,Rain,158
2013-1-2,84,79,74,76,74,72,100,87,64,29.89,29.82,29.76,6,6,4,8,4,,0.16,6,Rain,175
2013-1-3,83,78,73,77,75,73,100,89,75,29.89,29.81,29.73,6,6,4,9,4,,0.01,6,Rain,117
2013-1-4,82,78,75,79,76,73,100,91,71,29.83,29.76,29.68,6,6,4,10,6,,0.39,6,Rain,97
2013-1-5,82,77,72,75,72,58,100,87,38,29.83,29.75,29.68,6,6,1,9,5,,0.59,7,Rain,222
2013-1-6,81,76,72,75,74,73,100,91,70,29.86,29.78,29.71,6,6,4,7,3,,0.01,5,Rain,260
2013-1-7,84,79,74,76,74,72,100,89,69,29.86,29.80,29.75,6,6,1,8,2,,0.79,6,Rain,201
2013-1-8,82,78,73,77,74,61,100,88,57,29.89,29.81,29.73,6,6,3,8,4,,0.59,6,Rain,213
2013-1-9,84,78,73,76,72,59,95,81,43,29.83,29.79,29.69,6,6,6,10,6,,0.01,5,Rain,225
2013-1-10,82,79,76,77,76,73,94,89,81,29.83,29.77,29.68,6,6,4,9,7,20,0.12,7,Rain,256
2013-1-11,84,80,76,75,73,64,94,78,61,29.83,29.77,29.70,6,6,6,13,7,24,0.01,6,Rain,243
2013-1-12,83,78,73,77,73,71,96,88,66,29.83,29.79,29.73,6,6,1,12,6,,0.91,6,Rain,250
2013-1-13,84,78,73,74,72,71,95,80,62,29.80,29.77,29.71,6,6,4,9,6,29,0.00,6,Rain,272
2013-1-14,84,78,73,73,72,71,94,80,60,29.86,29.81,29.74,6,6,6,8,5,,0.01,4,Rain,265
2013-1-15,81,76,71,75,72,70,100,87,66,29.89,29.84,29.78,6,6,4,8,2,,0.00,7,Rain,45
2013-1-16,80,76,71,75,72,71,100,90,74,29.92,29.85,29.79,6,6,2,6,2,,0.04,7,Rain,132
2013-1-17,84,78,71,73,71,68,100,82,53,29.89,29.84,29.78,6,6,3,8,3,,0.00,7,Rain,346
2013-1-18,85,78,72,74,72,70,97,82,59,29.92,29.85,29.77,6,6,6,9,3,,0.00,5,Rain,283
2013-1-19,84,78,73,76,74,72,97,86,66,29.92,29.85,29.77,6,6,3,7,4,,0.04,6,Rain,275
2013-1-20,85,79,73,76,74,71,100,86,59,29.92,29.85,29.78,6,6,3,8,5,,0.28,6,Rain,282
2013-1-21,81,78,74,77,75,73,100,92,86,29.92,29.87,29.80,6,6,2,10,5,,0.16,7,Rain,289
2013-1-22,84,80,75,79,76,73,100,91,73,29.92,29.86,29.79,6,6,4,8,6,,0.16,7,Rain,288
2013-1-23,82,78,75,76,74,72,100,89,72,29.92,29.84,29.77,6,6,3,10,6,,0.00,6,Rain,191
2013-1-24,83,78,73,73,72,70,94,81,61,29.92,29.86,29.80,6,6,6,6,4,,0.00,7,,187
2013-1-25,82,77,72,73,70,59,95,78,54,29.95,29.87,29.81,6,6,6,7,3,,0.01,5,Rain,180
2013-1-26,84,77,70,75,70,59,100,78,55,29.95,29.89,29.82,6,6,6,8,2,,0.02,6,Rain,289
2013-1-27,81,76,71,77,73,68,100,89,69,29.92,29.89,29.81,6,6,1,7,4,,1.61,7,Rain,225
2013-1-28,85,78,71,85,75,61,100,91,63,29.95,29.87,29.80,6,6,6,7,4,,0.01,7,Rain,297
2013-1-29,84,78,73,84,73,62,100,82,54,29.95,29.89,29.82,6,6,6,7,4,,0.00,6,Rain,315
2013-1-30,84,78,73,77,74,72,100,87,62,29.98,29.92,29.86,6,5,2,6,4,,0.71,7,Rain,273
2013-1-31,85,80,74,77,75,73,100,84,66,29.98,29.93,29.84,6,6,6,9,5,,0.00,4,,196